FW1898 Weather Reports


time (UTC)temp
C
wind
direction
speed
KPH
gust
KPH
rain 1hr
cm
rain 24hr
cm
rain mn
cm
humidity
%
barometer
mb
20260510185137 16 326 3.2 11.3 0.00 0.48 0.00 100 1124.3
20260510184139 16 310 1.6 6.4 0.00 0.48 0.00 100 1124.3
20260510183222 15 3 8.0 12.9 0.00 0.48 0.00 100 1124.1
20260510182239 16 291 8.0 14.5 0.00 0.48 0.00 100 1124.0
20260510181239 16 318 4.8 8.0 0.00 0.48 0.00 100 1123.8
20260510180239 16 342 9.7 16.1 0.00 0.48 0.00 100 1123.7
20260510175239 15 10 3.2 6.4 0.00 0.48 0.00 100 1123.9
20260510173336 15 326 3.2 6.4 0.00 0.48 0.00 100 1124.0
20260510172423 15 337 6.4 9.7 0.00 0.48 0.00 100 1124.1
20260510171440 15 343 1.6 6.4 0.00 0.48 0.00 100 1124.1
20260510165539 15 352 1.6 14.5 0.00 0.48 0.00 100 1124.4
20260510163639 15 360 6.4 11.3 0.00 0.48 0.00 100 1124.3
20260510162638 14 24 8.0 11.3 0.00 0.48 0.00 100 1123.9
20260510161737 13 314 4.8 9.7 0.00 0.48 0.00 100 1124.1
20260510160836 14 17 12.9 19.3 0.00 0.48 0.00 100 1124.0
20260510155921 14 34 11.3 17.7 0.00 0.48 0.00 100 1124.1
20260510154938 13 358 3.2 9.7 0.00 0.48 0.00 100 1123.9
20260510153939 13 18 8.0 11.3 0.00 0.48 0.00 100 1123.8
20260510153037 13 30 9.7 14.5 0.00 0.48 0.00 100 1123.6
20260510152122 12 7 8.0 11.3 0.00 0.48 0.00 100 1123.6
20260510151137 12 31 11.3 17.7 0.00 0.48 0.00 100 1123.4
20260510150139 12 337 8.0 12.9 0.00 0.48 0.00 100 1123.4
20260510145138 12 21 9.7 11.3 0.00 0.48 0.00 100 1123.3
20260510144237 11 19 14.5 19.3 0.00 0.48 0.00 100 1122.9
20260510142221 11 26 16.1 20.9 0.00 0.48 0.00 100 1122.6
20260510141238 11 24 11.3 17.7 0.00 0.48 0.00 100 1122.6
20260510140337 11 343 9.7 17.7 0.00 0.48 0.00 100 1122.6
20260510134437 10 20 12.9 20.9 0.00 0.48 0.00 100 1122.6
20260510133438 10 15 6.4 12.9 0.00 0.48 0.00 100 1122.3
20260510132537 10 24 9.7 14.5 0.00 0.51 0.00 100 1122.3
20260510131536 9 353 9.7 12.9 0.00 0.51 0.00 100 1122.1
20260510125636 9 14 8.0 11.3 0.00 0.51 0.00 100 1121.8
20260510124641 8 5 8.0 11.3 0.00 0.51 0.00 100 1121.5
20260510123639 8 3 12.9 20.9 0.00 0.51 0.00 100 1121.2
20260510122639 8 21 8.0 9.7 0.00 0.51 0.00 100 1120.9
20260510121638 8 359 8.0 12.9 0.00 0.51 0.00 100 1120.7
20260510120721 8 340 8.0 14.5 0.00 0.51 0.00 100 1120.6
20260510115736 8 338 8.0 9.7 0.00 0.51 0.00 100 1120.2
20260510114738 8 358 8.0 14.5 0.00 0.51 0.00 100 1120.2
20260510112738 8 337 3.2 8.0 0.00 0.51 0.00 100 1120.0
20260510111738 8 352 6.4 11.3 0.00 0.51 0.00 100 1119.4
20260510110820 8 341 6.4 8.0 0.00 0.51 0.00 100 1119.1
20260510110737 8 337 3.2 6.4 0.00 0.51 0.00 100 1119.1
20260510105736 8 337 3.2 8.0 0.00 0.51 0.00 100 1119.1
20260510104737 7 360 0.0 0.0 0.00 0.51 0.00 100 1118.9
20260510103837 7 360 3.2 6.4 0.00 0.51 0.00 100 1118.6
20260510102936 7 337 0.0 3.2 0.00 0.51 0.00 100 1118.4
20260510101937 7 337 0.0 0.0 0.00 0.51 0.00 100 1118.4
20260510100936 7 337 0.0 0.0 0.00 0.51 0.00 100 1117.9
20260510095937 7 5 3.2 4.8 0.00 0.51 0.00 100 1117.6
20260510094936 7 22 4.8 6.4 0.00 0.51 0.00 100 1117.5
20260510093940 7 344 1.6 3.2 0.00 0.51 0.00 100 1117.6
20260510093038 7 340 1.6 3.2 0.00 0.51 0.00 100 1117.5
20260510092137 7 294 1.6 4.8 0.00 0.51 0.00 100 1117.5
20260510091138 7 337 0.0 1.6 0.00 0.51 0.00 100 1117.5
20260510090237 7 337 0.0 1.6 0.00 0.51 0.00 100 1117.3
20260510085238 7 360 0.0 0.0 0.00 0.51 0.00 100 1117.2
20260510084238 7 337 0.0 1.6 0.00 0.51 0.00 100 1116.9
20260510083238 8 337 1.6 3.2 0.00 0.51 0.00 100 1116.8
20260510082337 8 337 4.8 6.4 0.00 0.51 0.00 100 1116.6
20260510081336 8 2 4.8 11.3 0.00 0.51 0.00 100 1116.5
20260510075340 8 18 6.4 9.7 0.00 0.51 0.00 100 1116.3
20260510074437 9 13 9.7 16.1 0.00 0.51 0.00 100 1116.2
20260510073436 9 354 8.0 14.5 0.00 0.51 0.00 100 1116.3
20260510072436 9 9 12.9 17.7 0.00 0.51 0.00 100 1116.2
20260510071439 10 3 8.0 16.1 0.00 0.51 0.00 100 1116.0
20260510070437 10 346 8.0 14.5 0.00 0.51 0.00 100 1115.9
20260510065436 11 354 11.3 16.1 0.00 0.51 0.00 100 1115.7
20260510064436 11 326 11.3 20.9 0.00 0.51 0.00 100 1115.6
20260510063437 12 303 6.4 11.3 0.00 0.53 0.00 100 1115.4
20260510062522 12 302 9.7 12.9 0.00 0.58 0.00 100 1115.4
20260510061538 12 285 6.4 16.1 0.00 0.64 0.00 100 1115.1
20260510060621 12 286 8.0 11.3 0.00 0.64 0.00 100 1114.9
20260510055636 13 286 9.7 14.5 0.00 0.64 0.00 100 1114.8
20260510053719 13 271 9.7 17.7 0.00 0.64 0.00 100 1114.6
20260510052738 13 276 4.8 6.4 0.00 0.66 0.00 100 1114.5
20260510051738 12 241 6.4 12.9 0.00 0.71 0.00 100 1114.5
20260510050736 12 222 4.8 6.4 0.00 0.76 0.00 100 1114.2
20260510045738 13 224 4.8 6.4 0.00 0.84 0.00 100 1114.1
20260510044737 13 216 6.4 8.0 0.00 0.94 0.00 100 1114.1
20260510043836 12 209 6.4 8.0 0.00 0.94 0.00 100 1113.8
20260510042922 12 204 4.8 9.7 0.00 0.94 0.00 100 1114.0
20260510041937 11 201 8.0 12.9 0.00 0.97 0.00 100 1113.8
20260510040938 11 157 1.6 3.2 0.00 0.97 0.00 100 1113.6
20260510040036 11 157 3.2 6.4 0.00 0.99 0.00 100 1113.5
20260510035035 11 157 4.8 8.0 0.00 0.99 0.99 100 1113.5
20260510034133 11 149 4.8 6.4 0.00 1.07 0.99 100 1113.4
20260510031134 12 135 4.8 6.4 0.03 1.17 0.99 100 1113.3
20260510030134 12 157 0.0 1.6 0.03 1.17 0.99 100 1113.4
20260510025232 12 157 3.2 4.8 0.03 1.17 0.99 100 1113.5
20260510024233 12 157 1.6 3.2 0.05 1.17 0.99 100 1113.5
20260510023235 12 247 0.0 1.6 0.08 1.14 0.97 100 1114.0
20260510022334 12 225 1.6 3.2 0.08 1.17 0.97 100 1113.6
20260510021334 12 247 0.0 0.0 0.08 1.17 0.97 100 1113.2
20260510020333 12 247 3.2 4.8 0.08 1.17 0.97 100 1113.3
20260510015334 12 256 6.4 12.9 0.08 1.17 0.97 100 1112.8
20260510014433 12 247 3.2 11.3 0.05 1.14 0.94 100 1113.2
20260510013434 12 135 0.0 0.0 0.00 1.12 0.89 100 1112.6
20260510012533 12 135 0.0 0.0 0.00 1.12 0.89 100 1112.4
20260510011536 12 157 0.0 0.0 0.00 1.12 0.89 100 1112.3
20260510004634 12 175 1.6 3.2 0.03 1.14 0.89 100 1112.0
20260510000916 12 261 3.2 8.0 0.38 1.17 0.89 100 1112.0
20260509235933 12 290 8.0 12.9 0.38 1.17 0.89 100 1112.6
20260509234933 12 288 9.7 16.1 0.36 1.17 0.86 100 1112.2
20260509234834 12 295 9.7 16.1 0.36 1.17 0.86 100 1112.2
20260509233834 12 294 9.7 17.7 0.36 1.17 0.86 100 1112.3
20260509232833 14 290 19.3 30.6 0.28 1.09 0.76 100 1112.6
20260509231835 17 291 17.7 29.0 0.00 0.84 0.51 100 1111.8
20260509230933 18 250 8.0 14.5 0.00 0.86 0.51 100 1110.4
20260509225032 19 221 16.1 27.4 0.00 0.91 0.51 100 1110.2
20260509224033 20 226 12.9 19.3 0.00 0.94 0.51 100 1110.0
20260509223034 20 219 12.9 19.3 0.00 0.97 0.51 100 1110.0
20260509222934 20 217 11.3 17.7 0.00 0.99 0.51 100 1110.0
20260509221935 20 220 20.9 32.2 0.00 1.07 0.51 100 1110.0
20260509221034 20 220 20.9 33.8 0.00 1.09 0.51 100 1109.9
20260509220037 21 209 12.9 22.5 0.00 1.12 0.51 100 1109.8
20260509215133 21 228 11.3 20.9 0.00 1.12 0.51 100 1110.0
20260509214231 21 223 11.3 19.3 0.00 1.12 0.51 100 1109.7
20260509211332 21 206 17.7 29.0 0.00 1.12 0.51 100 1109.7
20260509210332 21 216 19.3 27.4 0.00 1.12 0.51 100 1110.0
20260509205333 21 186 9.7 17.7 0.00 1.12 0.51 100 1110.2
20260509204334 21 217 19.3 29.0 0.00 1.12 0.51 100 1110.3
20260509203433 21 184 3.2 9.7 0.00 1.12 0.51 100 1110.5
20260509202433 20 210 9.7 19.3 0.00 1.12 0.51 100 1110.6
20260509201532 20 196 12.9 27.4 0.00 1.12 0.51 100 1110.9
20260509200533 20 222 14.5 24.1 0.00 1.12 0.51 100 1111.0
20260509194731 20 218 12.9 22.5 0.00 1.12 0.51 100 1111.4
20260509193735 20 196 14.5 29.0 0.00 1.12 0.51 100 1111.3
20260509192735 20 216 12.9 17.7 0.00 1.12 0.51 100 1111.4
20260509191733 20 222 8.0 12.9 0.00 1.12 0.51 100 1111.5